Rome, GA

9:50 PM EDT on May 22, 2018 (GMT -0400)
Russell

Weather History for KRMG - April, 2014

Change the Weather History Date:

Tuesday, April 1, 2014

  Actual Average Record
Temperature  
Mean Temperature 63 °F 56 °F  
Max Temperature 83 °F 69 °F 84 °F (2006)
Min Temperature 42 °F 44 °F 33 °F (2003)
Degree Days  
Heating Degree Days 2 9  
Month to date heating degree days 2 9  
Since 1 July heating degree days 3277 3036  
Cooling Degree Days 0 0  
Month to date cooling degree days 0 0  
Year to date cooling degree days 0 4  
Growing Degree Days 12 (Base 50)    
Moisture  
Dew Point 35 °F    
Average Humidity 51    
Maximum Humidity 89    
Minimum Humidity 12    
Precipitation  
Precipitation 0.00 in 0.14 in 1.13 in (2005)
Month to date precipitation 0.00 0.14  
Year to date precipitation 12.36 14.78  
Snow  
Snow 0.00 in - - ()
Month to date snowfall  
Since 1 July snowfall T  
Snow Depth -    
Sea Level Pressure  
Sea Level Pressure 30.08 in    
Wind  
Wind Speed 4 mph (SW)    
Max Wind Speed 14 mph    
Max Gust Speed 21 mph    
Visibility 10 miles    
Events      
T = Trace of Precipitation, MM = Missing Value Source: NWS Daily Summary

Daily Weather History Graph

Daily Weather History Graph

Search for Another Location

Airport or City:

Astronomy

Apr. 01, 2014 Rise Set
Actual Time 7:27 AM EDT 8:01 PM EDT
Civil Twilight 7:02 AM EDT 8:26 PM EDT
Nautical Twilight 6:32 AM EDT 8:56 PM EDT
Astronomical Twilight 6:02 AM EDT 9:27 PM EDT
Moon 8:35 AM EDT (4/1) 10:17 PM EDT (4/1)
Length of Visible Light 13h 24m
Length of Day
12h 33m
Waxing Crescent, 4% of the Moon is Illuminated
Apr 1
Waxing Crescent
Apr 7
First Quarter
Apr 15
Full
Apr 22
Last Quarter
Apr 29
New

Hourly Weather History & Observations

Time (EDT) Temp. Windchill Dew Point Humidity Pressure Visibility Wind Dir Wind Speed Gust Speed Precip Events Conditions
12:53 AM 46.9 °F - 37.0 °F 68% 30.08 in 10.0 mi Calm Calm - N/A   Clear
1:53 AM 45.0 °F - 36.0 °F 71% 30.08 in 10.0 mi Calm Calm - N/A   Clear
2:53 AM 45.0 °F - 39.0 °F 80% 30.08 in 10.0 mi Calm Calm - N/A   Clear
3:53 AM 43.0 °F 40.3 °F 39.9 °F 89% 30.06 in 10.0 mi South 4.6 mph - N/A   Clear
4:53 AM 46.9 °F - 41.0 °F 80% 30.04 in 10.0 mi ENE 4.6 mph - N/A   Scattered Clouds
5:53 AM 48.9 °F - 39.0 °F 69% 30.08 in 10.0 mi Variable 3.5 mph - N/A   Scattered Clouds
6:53 AM 46.9 °F - 39.9 °F 77% 30.11 in 10.0 mi Calm Calm - N/A   Partly Cloudy
7:53 AM 48.0 °F - 43.0 °F 83% 30.13 in 10.0 mi Calm Calm - N/A   Overcast
8:53 AM 52.0 °F - 41.0 °F 66% 30.15 in 10.0 mi Calm Calm - N/A   Scattered Clouds
9:53 AM 57.9 °F - 42.1 °F 56% 30.14 in 10.0 mi SSW 4.6 mph - N/A   Partly Cloudy
10:53 AM 66.0 °F - 39.9 °F 38% 30.14 in 10.0 mi SW 5.8 mph - N/A   Clear
11:53 AM 71.1 °F - 41.0 °F 34% 30.13 in 10.0 mi Variable 4.6 mph - N/A   Clear
12:53 PM 75.9 °F - 37.0 °F 24% 30.11 in 10.0 mi SSE 6.9 mph - N/A   Clear
1:53 PM 79.0 °F - 26.1 °F 14% 30.08 in 10.0 mi WSW 6.9 mph 16.1 mph N/A   Clear
2:53 PM 81.0 °F - 24.1 °F 12% 30.06 in 10.0 mi SW 10.4 mph 17.3 mph N/A   Clear
3:53 PM 82.0 °F - 24.1 °F 12% 30.04 in 10.0 mi West 12.7 mph - N/A   Clear
4:53 PM 82.0 °F - 28.9 °F 14% 30.02 in 10.0 mi WSW 5.8 mph - N/A   Clear
5:53 PM 81.0 °F - 26.1 °F 13% 30.01 in 10.0 mi SSW 8.1 mph 16.1 mph N/A   Clear
6:53 PM 80.1 °F - 27.0 °F 14% 30.02 in 10.0 mi West 5.8 mph - N/A   Clear
7:53 PM 73.0 °F - 28.0 °F 19% 30.02 in 10.0 mi WSW 3.5 mph - N/A   Clear
8:53 PM 64.9 °F - 34.0 °F 32% 30.04 in 10.0 mi Calm Calm - N/A   Clear
9:53 PM 62.1 °F - 36.0 °F 38% 30.06 in 10.0 mi SSW 3.5 mph - N/A   Clear
10:53 PM 55.9 °F - 41.0 °F 57% 30.06 in 10.0 mi Calm Calm - N/A   Clear
11:53 PM 53.1 °F - 41.0 °F 64% 30.07 in 10.0 mi Calm Calm - N/A   Clear